Weather History for Fort Myers, FL

Change the Weather History Date:

Monday, February 4, 2013

  Actual Average Record
Temperature  
Mean Temperature 59 °F 65 °F  
Max Temperature 73 °F 76 °F 88 °F (2014)
Min Temperature 45 °F 55 °F 27 °F (1917)
Degree Days  
Heating Degree Days 6 3  
Month to date heating degree days 19 12  
Since 1 July heating degree days 91 213  
Cooling Degree Days 0 3  
Month to date cooling degree days 0 12  
Year to date cooling degree days 176 95  
Growing Degree Days 8 (Base 50)    
Moisture  
Dew Point 41 °F    
Average Humidity 58    
Maximum Humidity 96    
Minimum Humidity 16    
Precipitation  
Precipitation 0.00 in 0.07 in 1.27 in (1997)
Month to date precipitation 0.00 0.29  
Year to date precipitation 0.62 2.23  
Sea Level Pressure  
Sea Level Pressure 30.10 in    
Wind  
Wind Speed 4 mph (NNW)    
Max Wind Speed 10 mph    
Max Gust Speed 17 mph    
Visibility 10 miles    
Events      
T = Trace of Precipitation, MM = Missing Value Source: NWS Daily Summary

Daily Weather History Graph

Daily Weather History Graph

Search for Another Location

Airport:

Trip Planner

Search our weather history database for the weather conditions in past years. The results will help you decide how hot, cold, wet, or windy it might be!

Date:

Astronomy

Feb. 04, 2013 Rise Set
Actual Time 7:10 AM EST 6:12 PM EST
Civil Twilight 6:46 AM EST 6:36 PM EST
Nautical Twilight 6:18 AM EST 7:04 PM EST
Astronomical Twilight 5:51 AM EST 7:31 PM EST
Moon 1:38 AM EST (2/4) 12:42 PM EST (2/4)
Length of Visible Light 11h 49m
Length of Day
11h 01m
Last Quarter, 37% of the Moon is Illuminated
Feb 4
Last Quarter
Feb 10
New
Feb 17
First Quarter
Feb 25
Full
Mar 4
Last Quarter

Hourly Weather History & Observations

Time (EST) Temp. Dew Point Humidity Pressure Visibility Wind Dir Wind Speed Gust Speed Precip Events Conditions
12:53 AM 55.0 °F 52.0 °F 89% 30.12 in 10.0 mi Calm Calm - N/A   Clear
1:53 AM 52.0 °F 50.0 °F 93% 30.12 in 10.0 mi Calm Calm - N/A   Clear
2:53 AM 52.0 °F 50.0 °F 93% 30.12 in 9.0 mi Calm Calm - N/A   Clear
3:53 AM 51.1 °F 48.9 °F 92% 30.11 in 10.0 mi North 9.2 mph - N/A   Clear
5:53 AM 48.0 °F 45.0 °F 89% 30.12 in 10.0 mi NE 3.5 mph - N/A   Clear
6:53 AM 45.0 °F 43.0 °F 93% 30.14 in 8.0 mi Calm Calm - N/A   Clear
7:53 AM 46.9 °F 45.0 °F 93% 30.16 in 9.0 mi Calm Calm - N/A   Clear
8:53 AM 54.0 °F 46.9 °F 77% 30.16 in 10.0 mi Calm Calm - N/A   Clear
9:53 AM 60.1 °F 45.0 °F 57% 30.17 in 10.0 mi NE 5.8 mph - N/A   Clear
10:53 AM 64.0 °F 37.9 °F 38% 30.15 in 10.0 mi Variable 4.6 mph - N/A   Clear
11:53 AM 66.0 °F 35.1 °F 32% 30.14 in 10.0 mi SE 9.2 mph - N/A   Clear
12:53 PM 68.0 °F 34.0 °F 28% 30.11 in 10.0 mi ESE 9.2 mph - N/A   Clear
1:53 PM 70.0 °F 21.9 °F 16% 30.07 in 10.0 mi Variable 3.5 mph - N/A   Clear
2:53 PM 72.0 °F 23.0 °F 16% 30.05 in 10.0 mi South 4.6 mph - N/A   Clear
3:53 PM 72.0 °F 32.0 °F 23% 30.05 in 10.0 mi WSW 9.2 mph - N/A   Clear
4:53 PM 71.1 °F 32.0 °F 24% 30.05 in 10.0 mi WNW 9.2 mph - N/A   Clear
5:53 PM 66.9 °F 28.0 °F 23% 30.06 in 10.0 mi WSW 6.9 mph - N/A   Clear
6:53 PM 63.0 °F 42.1 °F 46% 30.07 in 10.0 mi WNW 4.6 mph - N/A   Clear
7:53 PM 60.1 °F 46.0 °F 60% 30.08 in 10.0 mi NW 3.5 mph - N/A   Clear
8:53 PM 59.0 °F 46.9 °F 64% 30.09 in 10.0 mi NNW 3.5 mph - N/A   Scattered Clouds
9:53 PM 57.9 °F 46.9 °F 67% 30.09 in 10.0 mi Calm Calm - N/A   Clear
10:53 PM 57.0 °F 46.9 °F 69% 30.09 in 10.0 mi Calm Calm - N/A   Partly Cloudy
11:53 PM 57.9 °F 45.0 °F 62% 30.09 in 10.0 mi North 4.6 mph - N/A   Mostly Cloudy